Vorticity
nan nan nan nan nan nan nan nan nan nan nan nan nan nan nan nan nan nan nan nan nan nan nan nan nan nan nan nan nan nan nan nan nan nan nan nan nan nan nan nan nan nan nan nan
nan 7 4 5 8 5 2 8 4 0 9 6 7 9 14 11 10 8 7 8 8 8 7 7 8 6 5 6 6 7 7 5 4 5 5 10 11 8 6 7 9 10 9 nan
nan 6 5 7 4 7 6 6 0 3 8 6 8 17 13 12 11 10 9 8 8 9 7 7 7 7 7 6 6 6 7 6 5 4 7 8 7 9 8 7 8 8 7 nan
nan 9 12 5 7 8 6 4 4 9 -0 5 8 18 20 12 11 10 8 7 8 8 7 7 6 7 7 7 7 7 7 6 6 6 4 7 7 7 7 6 9 6 8 nan
nan 12 10 6 9 3 3 11 8 5 5 9 4 3 11 14 9 12 11 8 8 9 8 7 7 7 6 7 8 8 8 6 7 6 4 6 7 6 8 8 7 7 8 nan
nan 10 8 10 7 5 4 4 11 10 10 9 10 7 6 13 14 14 13 10 8 8 8 8 8 7 7 7 7 9 8 7 8 7 7 5 6 6 7 7 5 9 8 nan
nan 4 5 15 11 12 9 -1 4 8 8 7 14 8 8 10 16 20 18 11 8 7 8 9 8 6 8 8 6 7 8 8 8 7 7 7 5 7 6 7 5 7 9 nan
nan 9 8 10 13 8 11 0 2 3 3 10 4 3 9 1 11 18 17 16 11 8 8 9 8 8 8 9 8 7 7 8 9 7 7 7 7 6 9 7 7 7 6 nan
nan 13 10 3 13 10 7 7 2 5 2 9 7 2 4 7 12 17 14 14 13 10 9 9 9 8 8 10 10 8 7 9 9 7 8 7 7 7 8 9 9 7 7 nan
nan 18 15 7 6 10 11 14 9 11 11 7 3 5 13 11 6 9 13 13 15 13 9 8 10 9 9 10 10 9 8 9 8 8 7 8 8 8 6 8 9 7 7 nan
nan 16 9 12 12 6 5 6 10 9 11 8 9 11 15 5 2 7 16 21 17 15 13 10 10 11 10 8 10 10 9 9 8 9 8 9 9 7 6 6 8 8 9 nan
nan 9 16 8 11 15 8 6 4 9 8 1 8 7 11 18 7 9 14 19 24 20 13 12 11 10 10 10 10 9 10 7 8 10 9 10 9 9 6 7 7 8 9 nan
nan 13 9 10 10 13 15 12 9 1 10 12 8 6 -1 -1 2 8 12 17 22 17 16 12 11 10 9 10 9 9 11 10 7 8 9 9 9 8 8 8 7 8 8 nan
nan 12 12 10 6 10 14 12 10 7 5 9 9 5 -2 -4 -1 8 10 12 18 20 16 13 10 9 9 10 10 11 10 10 10 9 7 9 11 9 9 10 8 7 8 nan
nan 22 17 2 6 19 16 11 13 8 6 5 7 10 7 6 7 9 10 13 14 18 18 15 11 10 10 11 11 10 10 11 11 11 9 7 10 11 10 10 10 8 7 nan
nan 16 15 20 16 8 10 16 13 13 9 6 5 6 7 19 15 7 12 12 10 7 8 11 20 23 15 11 11 11 11 10 11 11 11 8 9 10 10 9 10 10 8 nan
nan 13 17 20 19 11 20 17 11 14 21 18 16 12 8 7 8 12 11 10 11 9 10 11 11 11 15 21 18 11 11 13 11 10 11 10 10 9 10 10 9 9 8 nan
nan 7 13 16 16 15 11 16 21 17 15 15 13 16 23 14 6 7 13 12 9 9 9 10 11 11 12 14 19 20 15 14 12 11 12 10 9 9 9 12 11 10 11 nan
nan 4 11 17 5 10 16 13 18 13 3 9 13 13 10 3 -4 2 9 11 10 10 10 10 11 11 11 12 15 21 23 18 13 8 15 18 10 12 11 11 10 10 9 nan
nan 7 9 11 11 10 6 7 7 12 13 9 13 12 6 2 2 6 8 9 9 9 10 9 10 10 9 11 14 13 10 13 15 16 8 12 15 14 15 13 11 10 10 nan
nan 13 14 5 7 6 3 10 13 10 9 15 13 12 12 10 18 17 7 6 8 10 11 10 8 9 10 11 10 8 10 11 9 9 14 14 10 13 14 15 12 12 11 nan
nan 12 11 14 17 -2 8 19 6 9 14 16 14 15 18 16 13 8 9 8 8 9 9 11 10 8 8 11 11 10 9 10 14 14 11 10 13 15 15 12 12 11 13 nan
nan 7 12 13 19 15 11 13 16 15 16 13 12 16 14 11 11 10 9 9 8 9 10 11 11 9 8 10 11 9 7 8 12 13 12 11 13 10 15 12 13 14 10 nan
nan 10 20 12 5 8 9 8 10 17 19 16 11 9 9 10 11 11 10 9 9 8 9 9 8 8 10 8 11 9 10 11 10 8 11 13 12 10 13 14 10 12 14 nan
nan 14 14 12 12 6 6 7 10 14 13 9 6 11 13 9 8 7 9 9 8 9 7 6 7 7 7 6 6 8 9 12 14 10 8 11 10 11 10 12 12 15 14 nan
nan nan nan nan nan nan nan nan nan nan nan nan nan nan nan nan nan nan nan nan nan nan nan nan nan nan nan nan nan nan nan nan nan nan nan nan nan nan nan nan nan nan nan nan
CAPE
0 0 4 7 5 51 11 61 60 0 49 200 273 280 284 488 279 325 481 144 43 18 0 0 1 39 95 271 627 949 1130 1614 1679 1472 1350 1444 931 1199 1515 1814 2467 2727 2321 2371
0 0 0 2 8 45 34 59 68 9 56 85 14 12 45 201 491 436 659 284 81 2 0 0 0 16 138 310 601 955 1200 1836 1738 1419 1549 1704 931 1119 1463 1708 2278 2095 2224 2261
0 0 0 2 7 62 55 41 86 57 28 33 16 43 3 7 371 401 779 470 236 11 0 9 13 0 53 238 518 816 1299 1744 1792 1483 1927 1693 1925 1670 1824 1942 1567 1703 2024 2120
0 0 0 0 2 5 77 58 47 29 43 68 4 78 41 104 364 534 658 535 383 203 1 2 30 23 9 116 323 609 1231 1749 1958 1993 2123 1828 991 1136 1159 1680 1601 1699 1688 2242
0 0 0 0 0 10 27 90 54 44 53 36 11 2 72 87 253 466 667 656 558 438 103 13 23 82 28 0 172 428 1106 1787 1793 2114 1947 2207 1669 1094 1230 1269 2229 2278 2543 2520
0 0 0 0 0 4 23 39 29 31 66 64 25 6 23 49 59 215 588 714 601 640 434 71 18 50 146 78 56 277 1274 1898 2062 2090 2083 2267 2072 1826 1457 1889 2218 1874 1644 2141
0 0 0 0 0 1 21 66 59 53 74 58 58 0 20 4 0 24 309 704 621 657 687 480 113 44 94 148 204 231 897 1660 1823 2013 1781 2044 2275 2433 2579 2644 2051 1870 1480 1364
0 0 0 0 0 0 4 27 52 55 36 35 50 0 0 0 0 0 66 399 575 537 735 754 493 274 191 179 263 444 828 1527 1599 1692 1762 2290 2622 2064 1991 2814 1736 1928 1382 1324
0 0 0 0 0 0 0 3 1 37 51 29 40 1 0 0 0 0 42 107 503 423 529 725 728 566 423 422 442 575 882 1453 1555 1489 1651 2110 2997 3027 2260 2323 2771 2119 2257 1785
0 0 0 0 0 0 0 0 0 3 21 19 27 9 49 11 0 3 0 3 127 352 294 417 683 758 601 566 628 757 749 1616 1400 1339 1308 1583 2099 2600 2558 2818 3236 2582 2367 2544
0 0 0 0 0 0 0 0 0 0 0 12 13 6 0 5 0 0 0 4 58 183 235 344 542 549 720 591 679 862 893 1352 1279 1598 1772 1920 1756 2222 2472 2398 2573 2872 2922 3067
0 0 0 0 0 0 0 0 0 0 0 0 2 2 17 3 7 121 285 740 369 224 329 422 691 632 816 875 862 903 991 1024 1786 2397 2846 1797 1442 1808 2130 2396 2268 2779 3074 3171
0 0 0 0 0 0 0 0 0 0 0 3 0 0 0 64 168 407 1132 1464 609 512 691 791 1096 1062 958 1123 1154 1091 1212 1107 1277 2348 1791 1692 1707 1611 1605 1752 2073 2676 2947 3193
0 0 0 0 0 0 0 0 0 0 0 0 0 0 2 0 0 301 1180 1698 1410 957 978 1053 1268 1207 1163 1289 1424 1769 1340 1256 1286 1546 1599 1930 1517 1570 1611 1908 2411 3272 3342 2982
0 2 0 0 0 0 0 0 0 0 0 0 0 0 0 0 0 1133 1354 1687 1800 1649 1339 1221 1292 1088 1045 1240 1409 1413 1407 1334 1320 1652 1570 2027 2107 2226 2040 2460 2232 2346 3243 3333
3 76 0 0 0 0 0 0 0 0 0 0 0 0 0 352 666 886 1174 1349 1582 1486 1070 998 1739 1219 1108 1232 1368 1499 1459 1429 1593 2222 1591 2171 2815 2931 2907 2757 2747 3258 2843 3490
8 84 91 13 2 0 0 0 0 0 0 0 0 0 3 760 468 239 332 363 250 103 99 124 193 266 746 1348 1253 1403 1388 1600 1707 1842 1900 1827 2614 2296 2680 2346 2724 3034 3229 3391
1 64 111 146 107 39 191 365 51 1 23 36 146 609 527 82 10 8 8 22 8 8 8 8 13 38 92 149 976 1382 1445 1683 1866 2079 2088 2064 2120 2141 2553 2599 2680 2878 2484 2985
0 5 128 168 148 513 647 646 515 398 431 388 470 409 6 111 114 7 10 8 7 8 6 7 10 10 8 20 123 1042 1724 1584 1522 1641 1896 1818 2187 2169 2050 2146 2231 2200 2210 2314
0 0 126 224 144 190 678 533 314 508 509 604 595 549 146 331 664 10 6 7 7 7 7 7 4 4 3 10 26 96 1 67 514 574 455 312 900 1440 1986 1952 2095 2390 2658 2533
0 0 156 231 214 556 456 255 360 411 497 657 665 683 582 578 462 6 7 5 5 8 9 7 7 7 8 7 4 10 20 10 2 20 21 257 325 545 1284 1705 1901 2378 2614 2947
107 142 101 279 287 324 68 466 569 268 680 535 469 603 432 103 10 13 9 10 8 10 11 13 11 12 13 26 107 97 78 69 30 31 8 48 94 217 599 834 948 1637 2011 2490
345 486 723 542 607 10 5 12 3 60 409 630 402 345 263 147 68 41 19 10 11 13 12 6 11 12 13 10 18 78 28 38 105 163 148 166 112 116 279 466 745 1268 1491 1396
147 158 332 624 10 8 7 4 1 12 321 368 277 138 112 129 107 38 82 21 15 13 13 9 10 7 0 0 0 3 3 23 98 119 114 97 149 136 105 326 476 759 609 342
66 98 197 12 7 2 3 5 2 1 35 70 26 31 78 39 32 17 16 16 15 6 3 0 0 0 0 0 0 0 0 7 63 13 22 10 1 40 9 32 80 139 1 1
80 107 395 370 8 17 11 2 3 0 0 17 41 15 1 6 23 118 136 58 22 9 0 2 2 0 0 0 0 0 0 0 0 3 0 0 3 0 2 17 30 0 0 1